This is the latest recevied weather packets stored in our database for station/object KG7MRB. If no packets are shown the sender has not sent any weather packets the latest 10 day(s).
| Time | Temp. | Humidity | Pressure | Rain* | Wind** | Luminosity | Snow |
|---|---|---|---|---|---|---|---|
| 1778095470 | 11.11° C | 96% | 1038.3 hPa | 0 mm | - | 48 W/m² | - |
| 1778095167 | 11.67° C | 96% | 1037.9 hPa | 0 mm | - | 56 W/m² | - |
| 1778094863 | 11.11° C | 96% | 1038.4 hPa | 0 mm | - | 63 W/m² | - |
| 1778094560 | 11.11° C | 96% | 1038 hPa | 0 mm | - | 56 W/m² | - |
| 1778094256 | 11.11° C | 96% | 1038 hPa | 0 mm | - | 52 W/m² | - |
| 1778093953 | 11.11° C | 96% | 1038.1 hPa | 0 mm | - | 46 W/m² | - |
| 1778093650 | 11.11° C | 96% | 1038 hPa | 0 mm | - | 54 W/m² | - |
| 1778093348 | 11.11° C | 96% | 1038 hPa | 0 mm | - | 59 W/m² | - |
| 1778093045 | 11.67° C | 95% | 1038 hPa | 0 mm | - | 47 W/m² | - |
| 1778092742 | 11.11° C | 96% | 1038.1 hPa | 0 mm | - | 53 W/m² | - |
| 1778092437 | 11.11° C | 96% | 1038.2 hPa | 0 mm | - | 48 W/m² | - |
| 1778092134 | 11.11° C | 96% | 1038 hPa | 0 mm | - | 53 W/m² | - |
| 1778091831 | 11.11° C | 96% | 1038.1 hPa | 0 mm | - | 66 W/m² | - |
| 1778091529 | 11.11° C | 96% | 1038 hPa | 0 mm | - | 70 W/m² | - |
| 1778091227 | 11.11° C | 95% | 1037.9 hPa | 0 mm | - | 56 W/m² | - |
| 1778090923 | 11.11° C | 96% | 1038.1 hPa | 0 mm | - | 66 W/m² | - |
| 1778090619 | 11.11° C | 95% | 1038 hPa | 0 mm | - | 54 W/m² | - |
| 1778090316 | 11.11° C | 95% | 1037.8 hPa | 0 mm | - | 71 W/m² | - |
| 1778090013 | 11.11° C | 95% | 1037.5 hPa | 0 mm | - | 58 W/m² | - |
| 1778089710 | 11.11° C | 95% | 1037.8 hPa | 0 mm | - | 71 W/m² | - |
| 1778089407 | 11.11° C | 96% | 1037.5 hPa | 0 mm | - | 88 W/m² | - |
| 1778089105 | 11.11° C | 96% | 1037.8 hPa | 0 mm | - | 60 W/m² | - |
| 1778088802 | 11.11° C | 95% | 1037.8 hPa | 0 mm | - | 59 W/m² | - |
| 1778088498 | 11.11° C | 95% | 1037.6 hPa | 0 mm | - | 69 W/m² | - |
| 1778088194 | 11.11° C | 96% | 1037.5 hPa | 0 mm | - | 71 W/m² | - |
* Rain latest hour (hover to see other rain measurements)
** Current wind speed in m/s (hover to see current wind gust speed)